• In Czech Republic
  • List of Countries
  • For 7 days
  • Water Temperature
  • Satellite Maps
  • Weather Map
  • Weather Widgets
  • user-avatar
    Login

    Hourly Weather Novaya Kazanka

    Today, 24 September, Monday

    Time Temperature Precipitation Wind Pressure Humidity
    00:00 +19°C° 0 mm 4 mps 763 mmHg 46%
    01:00 +18°C° 0 mm 4 mps 762 mmHg 48%
    02:00 +18°C° 0 mm 4 mps 762 mmHg 50%
    03:00 +17°C° 0 mm 4 mps 761 mmHg 53%
    04:00 +16°C° 0 mm 5 mps 761 mmHg 54%
    05:00 +16°C° 0 mm 5 mps 761 mmHg 55%
    06:00 +16°C° 0 mm 5 mps 761 mmHg 56%
    07:00 +17°C° 0.5 mm 6 mps 761 mmHg 61%
    08:00 +19°C° 0.5 mm 6 mps 761 mmHg 65%
    09:00 +19°C° 0 mm 6 mps 760 mmHg 69%
    10:00 +20°C° 0.8 mm 6 mps 761 mmHg 67%
    11:00 +20°C° 0.8 mm 6 mps 761 mmHg 64%
    12:00 +21°C° 0.8 mm 6 mps 761 mmHg 62%
    13:00 +21°C° 0.1 mm 6 mps 761 mmHg 56%
    14:00 +21°C° 0.1 mm 6 mps 761 mmHg 50%
    15:00 +20°C° 0 mm 7 mps 761 mmHg 46%
    16:00 +19°C° 0 mm 6 mps 761 mmHg 49%
    17:00 +17°C° 0 mm 5 mps 761 mmHg 51%
    18:00 +17°C° 0 mm 3 mps 762 mmHg 54%
    19:00 +17°C° 0 mm 3 mps 762 mmHg 55%
    20:00 +16°C° 0 mm 3 mps 762 mmHg 57%
    21:00 +16°C° 0 mm 3 mps 762 mmHg 58%
    22:00 +16°C° 0 mm 3 mps 762 mmHg 59%
    23:00 +14°C° 0 mm 3 mps 762 mmHg 60%

    Tomorrow, 25 September, Tuesday

    Time Temperature Precipitation Wind Pressure Humidity
    00:00 +14°C° 0 mm 3 mps 762 mmHg 60%
    01:00 +14°C° 0 mm 2 mps 762 mmHg 61%
    02:00 +14°C° 0 mm 2 mps 762 mmHg 62%
    03:00 +14°C° 0 mm 1 mps 762 mmHg 63%
    04:00 +14°C° 0 mm 1 mps 762 mmHg 62%
    05:00 +14°C° 0 mm 2 mps 762 mmHg 61%
    06:00 +14°C° 0 mm 2 mps 762 mmHg 61%
    07:00 +14°C° 0 mm 3 mps 762 mmHg 54%
    08:00 +17°C° 0 mm 3 mps 762 mmHg 47%
    09:00 +19°C° 0 mm 4 mps 762 mmHg 41%
    10:00 +20°C° 0 mm 5 mps 762 mmHg 36%
    11:00 +21°C° 0 mm 5 mps 762 mmHg 32%
    12:00 +23°C° 0 mm 5 mps 762 mmHg 28%
    13:00 +23°C° 0 mm 5 mps 761 mmHg 26%
    14:00 +25°C° 0 mm 5 mps 761 mmHg 24%
    15:00 +25°C° 0 mm 5 mps 761 mmHg 23%
    16:00 +23°C° 0 mm 5 mps 761 mmHg 24%
    17:00 +23°C° 0 mm 4 mps 761 mmHg 26%
    18:00 +22°C° 0 mm 4 mps 761 mmHg 27%
    19:00 +21°C° 0 mm 4 mps 761 mmHg 29%
    20:00 +21°C° 0 mm 4 mps 761 mmHg 31%
    21:00 +21°C° 0 mm 5 mps 761 mmHg 33%
    22:00 +20°C° 0 mm 5 mps 761 mmHg 39%
    23:00 +20°C° 0 mm 5 mps 761 mmHg 45%

    Day after tomorrow, 26 September, Wednesday

    Time Temperature Precipitation Wind Pressure Humidity
    00:00 +20°C° 0 mm 5 mps 761 mmHg 51%
    01:00 +19°C° 0 mm 4 mps 762 mmHg 56%
    02:00 +19°C° 0 mm 4 mps 762 mmHg 62%
    03:00 +18°C° 0 mm 4 mps 762 mmHg 67%
    04:00 +17°C° 0 mm 4 mps 763 mmHg 70%
    05:00 +16°C° 0 mm 5 mps 763 mmHg 72%
    06:00 +15°C° 0 mm 5 mps 764 mmHg 75%
    07:00 +15°C° 0.1 mm 5 mps 764 mmHg 74%
    08:00 +15°C° 0.1 mm 5 mps 764 mmHg 72%
    09:00 +15°C° 0.1 mm 5 mps 765 mmHg 70%
    10:00 +15°C° 0.1 mm 5 mps 765 mmHg 70%
    11:00 +15°C° 0.1 mm 5 mps 765 mmHg 70%
    12:00 +15°C° 0.1 mm 5 mps 766 mmHg 69%
    13:00 +15°C° 0.2 mm 5 mps 766 mmHg 70%
    14:00 +14°C° 0.2 mm 5 mps 766 mmHg 70%
    15:00 +14°C° 0.2 mm 5 mps 766 mmHg 70%
    16:00 +13°C° 0.8 mm 5 mps 767 mmHg 73%
    17:00 +13°C° 0.8 mm 4 mps 767 mmHg 75%
    18:00 +12°C° 0.8 mm 4 mps 767 mmHg 77%
    19:00 +12°C° 0.4 mm 4 mps 767 mmHg 76%
    20:00 +12°C° 0.4 mm 3 mps 768 mmHg 76%
    21:00 +12°C° 0.4 mm 3 mps 768 mmHg 75%
    22:00 +12°C° 0.1 mm 3 mps 768 mmHg 75%
    23:00 +12°C° 0.1 mm 3 mps 768 mmHg 76%

    27 September, Thursday

    Time Temperature Precipitation Wind Pressure Humidity
    00:00 +13°C° 0.1 mm 2 mps 768 mmHg 77%
    01:00 +12°C° 0 mm 2 mps 768 mmHg 77%
    02:00 +12°C° 0 mm 2 mps 768 mmHg 77%
    03:00 +12°C° 0 mm 2 mps 769 mmHg 77%
    04:00 +12°C° 0 mm 2 mps 769 mmHg 75%
    05:00 +12°C° 0 mm 2 mps 769 mmHg 72%
    06:00 +13°C° 0 mm 2 mps 769 mmHg 70%
    07:00 +13°C° 0 mm 2 mps 769 mmHg 65%
    08:00 +14°C° 0 mm 2 mps 769 mmHg 61%
    09:00 +15°C° 0 mm 2 mps 769 mmHg 56%
    10:00 +16°C° 0 mm 3 mps 769 mmHg 50%
    11:00 +17°C° 0 mm 3 mps 768 mmHg 45%
    12:00 +18°C° 0 mm 3 mps 768 mmHg 39%
    13:00 +18°C° 0 mm 4 mps 768 mmHg 37%
    14:00 +17°C° 0 mm 5 mps 767 mmHg 35%
    15:00 +19°C° 0 mm 5 mps 767 mmHg 33%
    16:00 +17°C° 0 mm 5 mps 767 mmHg 35%
    17:00 +17°C° 0 mm 4 mps 766 mmHg 38%
    18:00 +16°C° 0 mm 3 mps 766 mmHg 40%
    19:00 +16°C° 0 mm 3 mps 766 mmHg 41%
    20:00 +14°C° 0 mm 3 mps 766 mmHg 42%
    21:00 +14°C° 0 mm 3 mps 766 mmHg 44%
    22:00 +13°C° 0 mm 4 mps 766 mmHg 45%
    23:00 +13°C° 0 mm 4 mps 766 mmHg 45%

    28 September, Friday

    Time Temperature Precipitation Wind Pressure Humidity
    00:00 +13°C° 0 mm 5 mps 765 mmHg 46%
    01:00 +13°C° 0 mm 5 mps 765 mmHg 46%
    02:00 +12°C° 0 mm 5 mps 765 mmHg 46%
    03:00 +12°C° 0 mm 5 mps 765 mmHg 46%
    04:00 +12°C° 0 mm 5 mps 765 mmHg 46%
    05:00 +10°C° 0 mm 5 mps 765 mmHg 45%
    06:00 +10°C° 0 mm 5 mps 765 mmHg 45%
    07:00 +11°C° 0 mm 6 mps 766 mmHg 42%
    08:00 +14°C° 0 mm 6 mps 766 mmHg 40%
    09:00 +15°C° 0 mm 7 mps 766 mmHg 37%
    10:00 +16°C° 0 mm 6 mps 766 mmHg 37%
    11:00 +17°C° 0 mm 6 mps 766 mmHg 37%
    12:00 +19°C° 0 mm 6 mps 766 mmHg 37%
    13:00 +19°C° 0 mm 6 mps 765 mmHg 38%
    14:00 +19°C° 0 mm 6 mps 765 mmHg 38%
    15:00 +20°C° 0 mm 6 mps 765 mmHg 38%
    16:00 +19°C° 0 mm 5 mps 765 mmHg 41%
    17:00 +18°C° 0 mm 4 mps 765 mmHg 44%
    18:00 +17°C° 0 mm 3 mps 765 mmHg 47%
    19:00 +17°C° 0 mm 3 mps 765 mmHg 47%
    20:00 +17°C° 0 mm 3 mps 765 mmHg 48%
    21:00 +16°C° 0 mm 3 mps 764 mmHg 49%
    22:00 +15°C° 0 mm 4 mps 764 mmHg 48%
    23:00 +15°C° 0 mm 4 mps 764 mmHg 48%

    29 September, Saturday

    Time Temperature Precipitation Wind Pressure Humidity
    00:00 +15°C° 0 mm 4 mps 764 mmHg 47%
    01:00 +15°C° 0 mm 4 mps 764 mmHg 45%
    02:00 +14°C° 0 mm 5 mps 764 mmHg 43%
    03:00 +14°C° 0 mm 5 mps 764 mmHg 41%
    04:00 +14°C° 0 mm 4 mps 764 mmHg 44%
    05:00 +13°C° 0 mm 4 mps 764 mmHg 46%
    06:00 +13°C° 0 mm 4 mps 764 mmHg 48%
    07:00 +15°C° 0 mm 4 mps 765 mmHg 46%
    08:00 +17°C° 0 mm 5 mps 765 mmHg 43%
    09:00 +19°C° 0 mm 5 mps 765 mmHg 40%
    10:00 +21°C° 0 mm 5 mps 765 mmHg 37%
    11:00 +22°C° 0 mm 4 mps 765 mmHg 34%
    12:00 +23°C° 0 mm 4 mps 765 mmHg 31%
    13:00 +23°C° 0 mm 4 mps 764 mmHg 31%
    14:00 +23°C° 0 mm 4 mps 764 mmHg 31%
    15:00 +25°C° 0 mm 3 mps 764 mmHg 31%
    16:00 +24°C° 0 mm 3 mps 764 mmHg 33%
    17:00 +23°C° 0 mm 2 mps 764 mmHg 36%
    18:00 +21°C° 0 mm 2 mps 764 mmHg 39%
    19:00 +20°C° 0 mm 2 mps 764 mmHg 40%
    20:00 +20°C° 0 mm 2 mps 764 mmHg 41%
    21:00 +19°C° 0 mm 2 mps 764 mmHg 42%
    22:00 +19°C° 0 mm 3 mps 764 mmHg 43%
    23:00 +19°C° 0 mm 3 mps 764 mmHg 45%
    Show more